Retour au catalogue

DELTA 1 DEB

ActifPO
NORAD 21268·DEBRIS·🇺🇸 United States

Lancé Jun 12, 1975 depuis Vandenberg Space Force Base

Loading…

Prochains Passages (prochaines 24 heures)

TLE

FraisSource: Space-Track

Époque: Sep 14, 2026, 08:38 UTC

1 21268U 75052D   26257.36033244 -.00000193  00000-0 -42597-3 0  9990
2 21268  99.8206 287.7228 0200034  95.4938 277.9500 13.06739075685435

Suivez DELTA 1 DEB en temps réel avec AllMySat

Download on the App Store